Blacksburg, VA

2:55 AM EDT on May 27, 2017 (GMT -0400)
Virginia Tech

Weather History for KBCB - April, 2012

Change the Weather History Date:

Thursday, April 19, 2012

  Actual Average Record
Temperature  
Mean Temperature 50 °F 52 °F  
Max Temperature 57 °F 65 °F 86 °F (1976)
Min Temperature 43 °F 39 °F 18 °F (1983)
Degree Days  
Heating Degree Days 15 13  
Month to date heating degree days 230 303  
Since 1 July heating degree days 4134 5078  
Cooling Degree Days 0 0  
Month to date cooling degree days 0 0  
Year to date cooling degree days 0 0  
Growing Degree Days 2 (Base 50)    
Moisture  
Dew Point 50 °F    
Average Humidity 90    
Maximum Humidity 100    
Minimum Humidity 80    
Precipitation  
Precipitation 0.01 in 0.11 in 1.29 in (2015)
Month to date precipitation 2.02 2.20  
Year to date precipitation 11.47 11.73  
Snow  
Snow 0.00 in - - ()
Month to date snowfall 0.0  
Since 1 July snowfall 10.0  
Snow Depth 0.00 in    
Sea Level Pressure  
Sea Level Pressure 30.12 in    
Wind  
Wind Speed 2 mph (ENE)    
Max Wind Speed 6 mph    
Max Gust Speed -    
Visibility 8 miles    
Events Rain    
T = Trace of Precipitation, MM = Missing Value Source: NWS Daily Summary

Daily Weather History Graph

Daily Weather History Graph

Search for Another Location

Airport or City:

Trip Planner

Search our weather history database for the weather conditions in past years. The results will help you decide how hot, cold, wet, or windy it might be!

Date:

Astronomy

Apr. 19, 2012 Rise Set
Actual Time 6:41 AM EDT 8:00 PM EDT
Civil Twilight 6:14 AM EDT 8:27 PM EDT
Nautical Twilight 5:41 AM EDT 9:00 PM EDT
Astronomical Twilight 5:07 AM EDT 9:34 PM EDT
Moon 5:32 AM EDT (4/19) 6:47 PM EDT (4/19)
Length of Visible Light 14h 13m
Length of Day
13h 19m
Waning Crescent, 2% of the Moon is Illuminated
Apr 19
Waning Crescent
Apr 21
New
Apr 29
First Quarter
May 5
Full
May 12
Last Quarter

Hourly Weather History & Observations

Time (EDT) Temp. Dew Point Humidity Pressure Visibility Wind Dir Wind Speed Gust Speed Precip Events Conditions
12:15 AM 48.2 °F 48.2 °F 100% 30.15 in 10.0 mi Calm Calm - N/A   Overcast
12:35 AM 48.2 °F 48.2 °F 100% 30.15 in 10.0 mi Calm Calm - N/A   Overcast
12:55 AM 48.2 °F 48.2 °F 100% 30.15 in 10.0 mi Calm Calm - N/A   Overcast
1:15 AM 48.2 °F 48.2 °F 100% 30.14 in 10.0 mi Calm Calm - N/A   Overcast
1:35 AM 48.2 °F 48.2 °F 100% 30.14 in 10.0 mi Calm Calm - N/A   Overcast
1:55 AM 48.2 °F 48.2 °F 100% 30.13 in 7.0 mi ENE 3.5 mph - N/A   Overcast
2:15 AM 48.2 °F 48.2 °F 100% 30.13 in 3.0 mi Calm Calm - N/A Rain Light Rain
2:35 AM 48.2 °F 48.2 °F 100% 30.12 in 3.0 mi Calm Calm - N/A Rain Light Rain
2:55 AM 48.2 °F 48.2 °F 100% 30.12 in 3.0 mi Calm Calm - N/A   Overcast
3:15 AM 48.2 °F 48.2 °F 100% 30.11 in 4.0 mi Calm Calm - N/A   Overcast
3:35 AM 48.2 °F 48.2 °F 100% 30.11 in 7.0 mi Calm Calm - N/A   Overcast
3:55 AM 48.2 °F 48.2 °F 100% 30.10 in 7.0 mi Calm Calm - N/A   Overcast
4:15 AM 48.2 °F 48.2 °F 100% 30.10 in 7.0 mi Calm Calm - N/A   Overcast
4:35 AM 48.2 °F 48.2 °F 100% 30.10 in 7.0 mi Calm Calm - N/A   Overcast
4:55 AM 48.2 °F 48.2 °F 100% 30.10 in 7.0 mi Calm Calm - N/A   Overcast
5:15 AM 48.2 °F 48.2 °F 100% 30.10 in 5.0 mi Calm Calm - N/A   Overcast
5:35 AM 48.2 °F 48.2 °F 100% 30.10 in 4.0 mi Calm Calm - N/A   Overcast
5:55 AM 48.2 °F 48.2 °F 100% 30.10 in 4.0 mi Calm Calm - N/A   Overcast
6:15 AM 48.2 °F 48.2 °F 100% 30.11 in 4.0 mi Calm Calm - N/A   Overcast
6:35 AM 48.2 °F 48.2 °F 100% 30.11 in 4.0 mi Calm Calm - N/A   Overcast
6:55 AM 48.2 °F 48.2 °F 100% 30.12 in 4.0 mi Calm Calm - N/A   Overcast
7:35 AM 48.2 °F 48.2 °F 100% 30.13 in 2.5 mi Calm Calm - N/A   Overcast
8:15 AM 50.0 °F 50.0 °F 100% 30.13 in 4.0 mi Calm Calm - N/A   Overcast
8:35 AM 50.0 °F 50.0 °F 100% 30.13 in 4.0 mi Calm Calm - N/A   Overcast
8:55 AM 50.0 °F 50.0 °F 100% 30.13 in 5.0 mi Calm Calm - N/A   Overcast
9:35 AM 51.8 °F 51.8 °F 100% 30.14 in 5.0 mi Calm Calm - N/A   Overcast
10:15 AM 51.8 °F 51.8 °F 100% 30.15 in 7.0 mi Calm Calm - N/A   Overcast
10:35 AM 53.6 °F 51.8 °F 94% 30.15 in 7.0 mi Calm Calm - N/A   Overcast
10:55 AM 53.6 °F 51.8 °F 94% 30.15 in 10.0 mi Calm Calm - N/A   Overcast
11:15 AM 55.4 °F 51.8 °F 88% 30.15 in 10.0 mi NE 3.5 mph - N/A   Overcast
11:35 AM 55.4 °F 51.8 °F 88% 30.15 in 10.0 mi ENE 3.5 mph - N/A   Overcast
11:55 AM 55.4 °F 51.8 °F 88% 30.15 in 10.0 mi NE 4.6 mph - N/A   Overcast
12:15 PM 55.4 °F 51.8 °F 88% 30.15 in 10.0 mi ENE 5.8 mph - N/A   Overcast
12:35 PM 57.2 °F 51.8 °F 82% 30.15 in 10.0 mi North 8.1 mph - N/A   Overcast
12:55 PM 57.2 °F 51.8 °F 82% 30.15 in 10.0 mi NNE 5.8 mph - N/A   Overcast
1:15 PM 57.2 °F 51.8 °F 82% 30.14 in 10.0 mi ENE 3.5 mph - N/A   Overcast
1:35 PM 57.2 °F 51.8 °F 82% 30.14 in 10.0 mi NE 4.6 mph - N/A   Overcast
1:55 PM 57.2 °F 51.8 °F 82% 30.14 in 10.0 mi NE 3.5 mph - N/A   Overcast
2:15 PM 57.2 °F 51.8 °F 82% 30.13 in 10.0 mi ENE 3.5 mph - N/A   Overcast
2:35 PM 57.2 °F 51.8 °F 82% 30.13 in 10.0 mi ENE 4.6 mph - N/A   Overcast
2:55 PM 57.2 °F 51.8 °F 82% 30.12 in 10.0 mi ENE 5.8 mph - N/A   Overcast
3:15 PM 57.2 °F 51.8 °F 82% 30.12 in 10.0 mi ENE 3.5 mph - N/A   Overcast
3:35 PM 57.2 °F 51.8 °F 82% 30.11 in 10.0 mi NE 3.5 mph - N/A   Overcast
3:55 PM 57.2 °F 51.8 °F 82% 30.10 in 10.0 mi East 3.5 mph - N/A   Overcast
4:15 PM 57.2 °F 51.8 °F 82% 30.10 in 10.0 mi ENE 3.5 mph - N/A   Overcast
4:35 PM 57.2 °F 51.8 °F 82% 30.09 in 10.0 mi East 5.8 mph - N/A   Overcast
4:55 PM 57.2 °F 51.8 °F 82% 30.09 in 10.0 mi ENE 5.8 mph - N/A   Overcast
5:15 PM 57.2 °F 53.6 °F 88% 30.09 in 10.0 mi East 6.9 mph - N/A   Overcast
5:35 PM 57.2 °F 51.8 °F 82% 30.09 in 10.0 mi NE 3.5 mph - N/A   Overcast
5:55 PM 57.2 °F 51.8 °F 82% 30.09 in 10.0 mi East 3.5 mph - N/A   Overcast
6:15 PM 57.2 °F 53.6 °F 88% 30.09 in 10.0 mi ENE 3.5 mph - N/A   Overcast
6:35 PM 57.2 °F 53.6 °F 88% 30.09 in 10.0 mi ESE 4.6 mph - N/A   Overcast
6:55 PM 57.2 °F 53.6 °F 88% 30.08 in 10.0 mi East 3.5 mph - N/A   Overcast
7:15 PM 57.2 °F 53.6 °F 88% 30.09 in 10.0 mi ESE 3.5 mph - N/A   Overcast
7:35 PM 55.4 °F 53.6 °F 94% 30.09 in 10.0 mi East 4.6 mph - N/A   Overcast
7:55 PM 55.4 °F 53.6 °F 94% 30.09 in 10.0 mi Calm Calm - N/A   Overcast
8:15 PM 55.4 °F 53.6 °F 94% 30.10 in 10.0 mi East 3.5 mph - N/A   Overcast
8:35 PM 55.4 °F 53.6 °F 94% 30.10 in 10.0 mi East 3.5 mph - N/A   Overcast
8:55 PM 53.6 °F 53.6 °F 100% 30.10 in 10.0 mi Calm Calm - N/A   Mostly Cloudy
9:15 PM 51.8 °F 51.8 °F 100% 30.10 in 10.0 mi Calm Calm - N/A   Clear
9:35 PM 51.8 °F 51.8 °F 100% 30.10 in 10.0 mi Calm Calm - N/A   Clear
9:55 PM 50.0 °F 50.0 °F 100% 30.11 in 10.0 mi Calm Calm - N/A   Clear
10:15 PM 48.2 °F 48.2 °F 100% 30.10 in 7.0 mi Calm Calm - N/A   Clear
10:35 PM 46.4 °F 46.4 °F 100% 30.10 in 5.0 mi Calm Calm - N/A   Clear
10:55 PM 46.4 °F 46.4 °F 100% 30.10 in 4.0 mi Calm Calm - N/A   Clear
11:15 PM 46.4 °F 46.4 °F 100% 30.09 in 4.0 mi Calm Calm - N/A   Clear
11:35 PM 46.4 °F 46.4 °F 100% 30.08 in 5.0 mi Calm Calm - N/A   Clear
11:55 PM 44.6 °F 44.6 °F 100% 30.08 in 2.0 mi Calm Calm - N/A   Clear